DW5785 Weather Reports


Display with metric or nautical units.
time (UTC)temp
F
wind
direction
speed
MPH
gust
MPH
rain 1hr
in
rain 24hr
in
rain mn
in
humidity
%
barometer
mb
20260901032042 60 156 9.0 13.0 0.00 0.40 0.00 81 1019.3
20260901031542 60 156 11.0 12.0 0.00 0.40 0.00 81 1019.2
20260901031046 60 123 7.0 15.0 0.00 0.40 0.00 81 1019.2
20260901030548 60 142 9.0 14.0 0.00 0.40 0.00 81 1019.2
20260901030042 60 145 13.0 14.0 0.00 0.40 0.00 80 1019.2
20260901025545 60 185 8.0 14.0 0.00 0.40 0.00 80 1019.2
20260901025048 60 176 6.0 11.0 0.00 0.40 0.00 80 1019.2
20260901024542 60 148 10.0 12.0 0.00 0.40 0.00 80 1019.2
20260901024043 60 178 7.0 12.0 0.00 0.40 0.00 79 1019.2
20260901023548 60 162 11.0 12.0 0.00 0.40 0.00 79 1019.2
20260901023045 60 132 7.0 10.0 0.00 0.40 0.00 79 1019.2
20260901022542 60 186 6.0 12.0 0.00 0.40 0.00 79 1019.2
20260901022042 60 160 6.0 9.0 0.00 0.40 0.00 78 1019.2
20260901021545 60 206 5.0 12.0 0.00 0.40 0.00 78 1019.2
20260901021046 60 151 5.0 9.0 0.00 0.40 0.00 78 1019.2
20260901020542 60 145 4.0 10.0 0.00 0.40 0.00 77 1019.1
20260901020042 60 170 5.0 8.0 0.00 0.40 0.00 77 1019.1
20260901015545 61 148 4.0 8.0 0.00 0.40 0.00 77 1019.0
20260901015042 61 135 5.0 10.0 0.00 0.40 0.00 77 1018.9
20260901014542 61 154 6.0 9.0 0.00 0.40 0.00 76 1019.0
20260901014049 61 141 5.0 8.0 0.00 0.40 0.00 76 1019.1
20260901013542 61 150 3.0 7.0 0.00 0.40 0.00 75 1019.0
20260901013042 61 160 6.0 9.0 0.00 0.40 0.00 75 1018.9
20260901012545 62 207 8.0 8.0 0.00 0.40 0.00 74 1018.9
20260901012045 62 156 4.0 9.0 0.00 0.40 0.00 74 1018.8
20260901011545 62 188 6.0 9.0 0.00 0.40 0.00 74 1018.8
20260901011043 62 149 5.0 8.0 0.00 0.40 0.00 74 1018.8
20260901010542 62 198 4.0 10.0 0.00 0.40 0.00 73 1018.9
20260901010048 62 138 6.0 10.0 0.00 0.40 0.00 73 1019.0
20260901005542 62 140 5.0 10.0 0.00 0.40 0.00 73 1019.1
20260901005045 62 143 5.0 10.0 0.00 0.40 0.00 73 1019.0
20260901004545 62 162 5.0 10.0 0.00 0.40 0.00 72 1019.0
20260901004043 62 159 5.0 9.0 0.00 0.40 0.00 72 1018.9
20260901003545 62 163 8.0 10.0 0.00 0.40 0.00 72 1018.8
20260901003045 62 168 5.0 9.0 0.00 0.40 0.00 71 1018.8
20260901002542 62 127 5.0 7.0 0.00 0.40 0.00 70 1018.8
20260901002045 62 124 6.0 13.0 0.00 0.40 0.00 70 1018.8
20260901001542 62 168 4.0 10.0 0.00 0.40 0.00 70 1018.8
20260901001043 63 149 6.0 8.0 0.00 0.40 0.00 69 1018.9
20260901000548 63 124 4.0 7.0 0.00 0.40 0.00 69 1018.9
20260901000045 63 156 6.0 9.0 0.00 0.40 0.00 69 1018.9
20260831235545 63 158 6.0 11.0 0.00 0.40 0.00 68 1018.8
20260831235042 63 181 4.0 8.0 0.00 0.40 0.00 68 1018.8
20260831234545 63 226 5.0 9.0 0.00 0.40 0.00 68 1018.8
20260831234046 63 168 6.0 10.0 0.00 0.40 0.00 67 1018.7
20260831233548 64 146 4.0 9.0 0.00 0.40 0.00 67 1018.7
20260831233045 64 166 6.0 11.0 0.00 0.40 0.00 66 1018.7
20260831232548 64 160 4.0 12.0 0.00 0.40 0.00 66 1018.8
20260831232042 64 148 8.0 10.0 0.00 0.40 0.00 66 1018.7
20260831231542 64 187 2.0 12.0 0.00 0.40 0.00 65 1018.6
20260831231043 64 181 8.0 12.0 0.00 0.40 0.00 66 1018.6
20260831230542 64 166 5.0 11.0 0.00 0.40 0.00 66 1018.6
20260831230048 64 122 5.0 12.0 0.00 0.40 0.00 66 1018.5
20260831225545 64 238 4.0 11.0 0.00 0.40 0.00 66 1018.5
20260831225042 64 148 7.0 11.0 0.00 0.40 0.00 66 1018.4
20260831224542 64 144 2.0 10.0 0.00 0.40 0.00 66 1018.4
20260831224043 65 195 5.0 9.0 0.00 0.40 0.00 65 1018.4
20260831223542 65 128 7.0 9.0 0.00 0.40 0.00 65 1018.3
20260831223045 65 167 5.0 9.0 0.00 0.40 0.00 64 1018.3
20260831222551 65 148 8.0 9.0 0.00 0.40 0.00 64 1018.1
20260831222045 66 157 6.0 10.0 0.00 0.40 0.00 63 1018.2
20260831221542 66 135 4.0 11.0 0.00 0.40 0.00 62 1018.2
20260831221052 66 201 7.0 11.0 0.00 0.40 0.00 62 1018.2
20260831220542 66 162 7.0 13.0 0.00 0.40 0.00 62 1018.2
20260831220042 66 180 10.0 11.0 0.00 0.40 0.00 62 1018.2
20260831215542 66 174 7.0 16.0 0.00 0.40 0.00 62 1018.1
20260831215048 66 172 16.0 16.0 0.00 0.40 0.00 63 1018.0
20260831214551 66 161 6.0 13.0 0.00 0.40 0.00 63 1017.9
20260831214046 66 135 7.0 13.0 0.00 0.40 0.00 64 1017.9
20260831213551 66 195 8.0 14.0 0.00 0.40 0.00 64 1017.9
20260831213042 66 201 7.0 12.0 0.00 0.40 0.00 64 1017.8
20260831212542 66 173 7.0 11.0 0.00 0.40 0.00 65 1017.8
20260831212045 66 141 7.0 9.0 0.00 0.40 0.00 65 1017.8
20260831211551 66 151 10.0 11.0 0.00 0.40 0.00 65 1017.7
20260831211043 66 206 6.0 9.0 0.00 0.40 0.00 66 1017.7
20260831210542 66 147 6.0 10.0 0.00 0.40 0.00 65 1017.6
20260831210042 66 144 7.0 9.0 0.00 0.40 0.00 66 1017.5
20260831205542 66 149 5.0 8.0 0.00 0.40 0.00 65 1017.5
20260831205042 66 158 5.0 10.0 0.00 0.40 0.00 65 1017.4
20260831204548 66 160 3.0 8.0 0.00 0.40 0.00 64 1017.4
20260831204043 67 171 4.0 8.0 0.00 0.40 0.00 64 1017.3
20260831203548 67 153 3.0 7.0 0.00 0.40 0.00 64 1017.2
20260831203042 67 116 3.0 9.0 0.00 0.40 0.00 63 1017.2
20260831202542 67 163 4.0 7.0 0.00 0.40 0.00 63 1017.1
20260831202042 67 148 5.0 8.0 0.00 0.40 0.00 63 1017.2
20260831201551 67 158 5.0 9.0 0.00 0.40 0.00 63 1017.1
20260831201043 67 171 6.0 10.0 0.00 0.40 0.00 63 1017.1
20260831200548 67 191 6.0 10.0 0.00 0.40 0.00 63 1017.0
20260831200042 67 149 4.0 7.0 0.00 0.40 0.00 63 1017.0
20260831195542 67 149 5.0 6.0 0.00 0.40 0.00 63 1017.0
20260831195042 67 183 3.0 6.0 0.00 0.40 0.00 63 1017.0
20260831194545 67 177 4.0 6.0 0.00 0.40 0.00 62 1016.9
20260831194049 68 154 3.0 6.0 0.00 0.40 0.00 61 1016.9
20260831193542 68 148 2.0 8.0 0.00 0.40 0.00 60 1016.8
20260831193045 68 136 3.0 8.0 0.00 0.40 0.00 60 1016.9
20260831192545 68 169 6.0 8.0 0.00 0.40 0.00 59 1016.8
20260831192045 69 173 4.0 7.0 0.00 0.40 0.00 59 1016.8
20260831191542 69 164 4.0 7.0 0.00 0.40 0.00 59 1016.7
20260831191043 69 155 4.0 6.0 0.00 0.40 0.00 59 1016.6
20260831190542 69 141 4.0 8.0 0.00 0.40 0.00 59 1016.5
20260831190042 69 142 5.0 7.0 0.00 0.40 0.00 58 1016.5
20260831185542 69 127 5.0 8.0 0.00 0.40 0.00 58 1016.5
20260831185048 69 181 3.0 6.0 0.00 0.40 0.00 58 1016.3
20260831184542 69 146 5.0 8.0 0.00 0.40 0.00 57 1016.3
20260831184046 69 125 4.0 7.0 0.00 0.40 0.00 57 1016.3
20260831183542 69 147 4.0 7.0 0.00 0.40 0.00 57 1016.3
20260831183042 69 182 4.0 8.0 0.00 0.40 0.00 57 1016.3
20260831182545 70 149 3.0 8.0 0.00 0.40 0.00 56 1016.2
20260831182042 70 162 3.0 9.0 0.00 0.40 0.00 56 1016.2
20260831181545 70 174 3.0 7.0 0.00 0.40 0.00 56 1016.1
20260831181046 70 181 5.0 9.0 0.00 0.40 0.00 55 1016.1
20260831180542 70 164 6.0 7.0 0.00 0.40 0.00 55 1016.0
20260831180042 71 196 4.0 8.0 0.00 0.40 0.00 54 1015.9
20260831175545 71 157 5.0 11.0 0.00 0.40 0.00 54 1015.8
20260831175045 71 163 5.0 10.0 0.00 0.40 0.00 54 1015.7
20260831174545 71 153 6.0 10.0 0.00 0.40 0.00 54 1015.8
20260831174043 71 164 8.0 11.0 0.00 0.40 0.00 53 1015.7
20260831173548 72 161 4.0 8.0 0.00 0.40 0.00 53 1015.7
20260831173042 72 171 3.0 9.0 0.00 0.40 0.00 53 1015.7
20260831172551 72 168 5.0 9.0 0.00 0.40 0.00 52 1015.6
20260831172042 72 145 2.0 11.0 0.00 0.40 0.00 52 1015.5
20260831171545 73 132 8.0 11.0 0.00 0.40 0.00 51 1015.5
20260831171043 73 149 6.0 10.0 0.00 0.40 0.00 51 1015.5
20260831170548 73 241 0.0 10.0 0.00 0.40 0.00 51 1015.5
20260831170048 73 156 4.0 13.0 0.00 0.40 0.00 50 1015.5
20260831165548 73 168 9.0 11.0 0.00 0.40 0.00 50 1015.4
20260831165042 73 181 5.0 12.0 0.00 0.40 0.00 50 1015.4
20260831164542 74 169 8.0 15.0 0.00 0.40 0.00 49 1015.4
20260831164043 74 195 4.0 14.0 0.00 0.40 0.00 49 1015.5
20260831163542 74 172 13.0 13.0 0.00 0.40 0.00 49 1015.4
20260831163042 74 218 5.0 15.0 0.00 0.40 0.00 48 1015.5
20260831162548 74 175 4.0 16.0 0.00 0.40 0.00 48 1015.4
20260831162042 74 229 5.0 18.0 0.00 0.40 0.00 48 1015.4
20260831161548 75 176 10.0 15.0 0.00 0.40 0.00 48 1015.4
20260831161049 75 206 9.0 12.0 0.00 0.40 0.00 49 1015.5
20260831160545 75 240 4.0 13.0 0.00 0.40 0.00 50 1015.5
20260831160045 74 186 7.0 15.0 0.00 0.40 0.00 50 1015.5
20260831155542 75 155 5.0 14.0 0.00 0.40 0.00 49 1015.4
20260831155045 75 193 8.0 17.0 0.00 0.40 0.00 49 1015.3
20260831154542 75 164 16.0 18.0 0.00 0.40 0.00 49 1015.2
20260831154049 75 124 8.0 14.0 0.00 0.40 0.00 49 1015.2
20260831153542 75 165 7.0 14.0 0.00 0.40 0.00 49 1015.2
20260831153042 75 171 9.0 14.0 0.00 0.40 0.00 49 1015.3
20260831152548 75 187 12.0 12.0 0.00 0.40 0.00 50 1015.3
20260831152042 75 152 2.0 11.0 0.00 0.40 0.00 51 1015.3
20260831151542 75 137 7.0 14.0 0.00 0.40 0.00 51 1015.3
20260831151043 75 170 6.0 15.0 0.00 0.40 0.00 51 1015.5
20260831150545 75 169 5.0 19.0 0.00 0.40 0.00 50 1015.5
20260831150045 75 183 7.0 15.0 0.00 0.40 0.00 50 1015.5
20260831145548 75 127 9.0 17.0 0.00 0.40 0.00 49 1015.5
20260831145042 75 154 9.0 18.0 0.00 0.40 0.00 49 1015.5
20260831144542 75 110 4.0 11.0 0.00 0.40 0.00 51 1015.5
20260831144046 75 195 7.0 14.0 0.00 0.40 0.00 51 1015.5
20260831143542 75 152 7.0 14.0 0.00 0.40 0.00 50 1015.5
20260831143048 76 145 7.0 12.0 0.00 0.40 0.00 49 1015.6
20260831142545 76 147 4.0 11.0 0.00 0.40 0.00 49 1015.6
20260831142048 77 102 10.0 11.0 0.00 0.40 0.00 49 1015.7
20260831141548 77 232 10.0 11.0 0.00 0.40 0.00 48 1015.6
20260831141043 77 168 3.0 10.0 0.00 0.40 0.00 50 1015.6
20260831140545 76 191 5.0 12.0 0.00 0.40 0.00 50 1015.6
20260831140042 76 174 3.0 15.0 0.00 0.40 0.00 50 1015.6
20260831135547 76 147 1.0 16.0 0.00 0.40 0.00 51 1015.6
20260831135045 75 70 2.0 15.0 0.00 0.40 0.00 51 1015.4
20260831134542 75 151 10.0 15.0 0.00 0.40 0.00 52 1015.4
20260831134043 74 151 4.0 13.0 0.00 0.40 0.00 52 1015.4
20260831133551 75 126 11.0 14.0 0.00 0.40 0.00 51 1015.6
20260831133042 75 155 9.0 15.0 0.00 0.40 0.00 51 1015.5
20260831132551 74 102 5.0 16.0 0.00 0.40 0.00 53 1015.6
20260831132045 74 148 14.0 16.0 0.00 0.40 0.00 52 1015.6
20260831131548 74 143 9.0 22.0 0.00 0.40 0.00 53 1015.6
20260831131046 74 118 6.0 14.0 0.00 0.40 0.00 53 1015.6
20260831130542 74 176 8.0 17.0 0.00 0.40 0.00 53 1015.6
20260831130045 75 217 9.0 9.0 0.00 0.40 0.00 54 1015.6
20260831125545 74 122 6.0 10.0 0.00 0.40 0.00 55 1015.7
20260831125042 73 73 6.0 17.0 0.00 0.40 0.00 55 1015.7
20260831124542 73 199 5.0 16.0 0.00 0.40 0.00 54 1015.7
20260831124046 72 314 3.0 17.0 0.00 0.40 0.00 56 1015.7
20260831123542 72 232 13.0 15.0 0.00 0.40 0.00 58 1015.7
20260831123045 73 173 4.0 13.0 0.00 0.40 0.00 58 1015.6
20260831122542 74 79 5.0 13.0 0.00 0.40 0.00 59 1015.6
20260831122045 73 141 7.0 12.0 0.00 0.40 0.00 60 1015.6
20260831121545 72 133 6.0 17.0 0.00 0.40 0.00 60 1015.6
20260831121049 72 155 9.0 16.0 0.00 0.40 0.00 61 1015.7
20260831120542 72 42 5.0 15.0 0.00 0.40 0.00 62 1015.7
20260831120045 72 68 5.0 13.0 0.00 0.40 0.00 62 1015.7
20260831115545 72 113 6.0 12.0 0.00 0.40 0.00 63 1015.6
20260831115045 72 193 5.0 15.0 0.00 0.40 0.00 64 1015.6
20260831114542 71 143 5.0 12.0 0.00 0.40 0.00 67 1015.6
20260831114046 71 158 2.0 11.0 0.00 0.40 0.00 69 1015.6
20260831113551 70 164 7.0 14.0 0.00 0.40 0.00 69 1015.6
20260831113042 70 184 5.0 12.0 0.00 0.40 0.00 70 1015.6
20260831112542 70 183 8.0 10.0 0.00 0.40 0.00 70 1015.7
20260831112048 70 145 7.0 12.0 0.00 0.40 0.00 70 1015.6
20260831111542 71 102 6.0 15.0 0.00 0.40 0.00 70 1015.7
20260831111049 71 172 7.0 16.0 0.00 0.40 0.00 71 1015.6
20260831110542 70 108 7.0 14.0 0.00 0.40 0.00 74 1015.7
20260831110045 69 131 5.0 13.0 0.00 0.40 0.00 74 1015.8
20260831105545 69 189 14.0 19.0 0.00 0.40 0.00 74 1015.8
20260831105045 69 179 13.0 19.0 0.00 0.40 0.00 76 1015.8
20260831104545 69 177 7.0 14.0 0.00 0.40 0.00 76 1015.7
20260831104046 69 173 11.0 16.0 0.00 0.40 0.00 77 1015.8
20260831103542 68 187 4.0 8.0 0.00 0.40 0.00 81 1015.7
20260831103042 67 219 5.0 15.0 0.00 0.40 0.00 81 1015.7
20260831102542 67 164 6.0 16.0 0.00 0.40 0.00 82 1015.7
20260831102051 67 195 7.0 16.0 0.00 0.40 0.00 82 1015.7
20260831101548 67 143 7.0 18.0 0.00 0.40 0.00 85 1015.7
20260831101043 66 139 7.0 10.0 0.00 0.40 0.00 86 1015.7
20260831100545 66 154 6.0 10.0 0.00 0.40 0.00 87 1015.8
20260831100041 66 168 5.0 14.0 0.00 0.40 0.00 88 1015.8
20260831095541 65 172 7.0 7.0 0.00 0.40 0.00 89 1015.8
20260831095042 65 138 2.0 7.0 0.00 0.40 0.00 90 1015.8
20260831094544 65 162 4.0 10.0 0.00 0.40 0.00 90 1015.8
20260831094052 65 126 2.0 9.0 0.00 0.40 0.00 91 1015.8
20260831093551 64 139 8.0 12.0 0.00 0.40 0.00 92 1015.8
20260831093045 64 88 2.0 7.0 0.00 0.40 0.00 93 1015.8
20260831092542 64 90 4.0 9.0 0.00 0.40 0.00 93 1015.8
20260831092042 63 105 5.0 8.0 0.00 0.40 0.00 94 1015.8
20260831091545 63 61 9.0 9.0 0.00 0.40 0.00 94 1015.8
20260831091043 63 100 6.0 9.0 0.00 0.40 0.00 94 1015.7
20260831090545 62 129 5.0 9.0 0.00 0.40 0.00 94 1015.7
20260831090042 62 114 4.0 7.0 0.00 0.40 0.00 94 1015.7
20260831085545 62 87 2.0 10.0 0.00 0.40 0.00 94 1015.7
20260831085045 62 127 9.0 9.0 0.00 0.40 0.00 94 1015.6
20260831084542 62 108 6.0 8.0 0.00 0.40 0.00 94 1015.5
20260831084043 62 103 3.0 7.0 0.00 0.40 0.00 94 1015.5
20260831083545 62 85 2.0 6.0 0.00 0.40 0.00 94 1015.4
20260831083048 62 102 4.0 6.0 0.00 0.40 0.00 94 1015.4
20260831082548 61 85 4.0 5.0 0.00 0.40 0.00 94 1015.4
20260831082051 61 160 0.0 3.0 0.00 0.40 0.00 94 1015.3
20260831081548 61 160 3.0 4.0 0.00 0.40 0.00 94 1015.4
20260831081046 61 102 2.0 3.0 0.00 0.40 0.00 93 1015.1
20260831080545 61 103 2.0 3.0 0.03 0.40 0.00 94 1015.2
20260831080048 61 102 2.0 3.0 0.05 0.40 0.00 94 1015.2
20260831075551 61 102 1.0 3.0 0.07 0.40 0.00 93 1015.0
20260831075051 60 102 2.0 3.0 0.10 0.40 0.00 93 1015.0
20260831074545 60 103 1.0 1.0 0.11 0.40 0.00 93 1014.9
20260831074043 60 102 0.0 2.0 0.14 0.40 0.00 93 1014.9
20260831073542 60 103 0.0 5.0 0.16 0.40 0.00 93 1015.0
20260831073048 60 75 4.0 6.0 0.18 0.40 0.00 92 1015.0
20260831072545 60 83 1.0 5.0 0.26 0.40 0.00 92 1015.0
20260831072048 60 77 5.0 5.0 0.38 0.39 0.00 92 1015.2
20260831071548 60 167 0.0 3.0 0.39 0.39 0.00 92 1015.0
20260831071046 60 167 1.0 3.0 0.39 0.39 0.00 92 1015.2
20260831070545 60 190 1.0 4.0 0.37 0.37 0.00 92 1015.4
20260831070042 60 143 1.0 6.0 0.34 0.34 0.00 91 1015.6
20260831065545 60 120 3.0 10.0 0.32 0.32 0.00 91 1015.6
20260831065045 61 188 9.0 13.0 0.29 0.29 0.00 91 1015.5
20260831064545 61 203 6.0 16.0 0.29 0.29 0.00 91 1015.4
20260831064049 61 158 5.0 22.0 0.25 0.25 0.00 90 1015.5
20260831063542 61 160 16.0 21.0 0.23 0.23 0.00 89 1015.6
20260831063045 61 191 15.0 24.0 0.21 0.21 0.00 88 1015.5
20260831062542 63 133 11.0 26.0 0.13 0.13 0.00 85 1015.3
20260831062042 64 193 19.0 24.0 0.00 0.00 0.00 81 1015.6
20260831061545 64 191 4.0 8.0 0.00 0.00 0.00 81 1014.3
20260831061043 64 74 1.0 2.0 0.00 0.00 0.00 82 1013.7
20260831060542 64 73 1.0 4.0 0.00 0.00 0.00 82 1013.6
20260831060045 64 85 2.0 5.0 0.00 0.00 0.00 82 1013.6
20260831055541 63 108 4.0 5.0 0.00 0.00 0.00 82 1013.6
20260831055041 64 56 2.0 5.0 0.00 0.00 0.00 82 1013.6
20260831054541 64 70 2.0 5.0 0.00 0.00 0.00 81 1013.8
20260831054046 64 106 2.0 4.0 0.00 0.00 0.00 81 1013.7
20260831053547 64 106 3.0 4.0 0.00 0.00 0.00 81 1013.8
20260831053050 64 106 3.0 3.0 0.00 0.00 0.00 80 1013.8
20260831052541 64 106 2.0 3.0 0.00 0.00 0.00 81 1013.8
20260831052042 64 106 2.0 4.0 0.00 0.00 0.00 80 1013.8
20260831051545 64 106 2.0 4.0 0.00 0.00 0.00 80 1013.8
20260831051043 64 106 2.0 3.0 0.00 0.00 0.00 80 1013.9
20260831050544 64 106 3.0 4.0 0.00 0.00 0.00 80 1013.9
20260831050045 64 106 3.0 4.0 0.00 0.00 0.00 80 1014.0
20260831045542 64 106 3.0 5.0 0.00 0.00 0.00 80 1014.0
20260831045042 64 139 5.0 6.0 0.00 0.00 0.00 80 1014.0
20260831044544 64 164 5.0 6.0 0.00 0.00 0.00 80 1014.0
20260831044043 64 127 5.0 6.0 0.00 0.00 0.00 79 1014.1
20260831043548 64 132 5.0 6.0 0.00 0.00 0.00 80 1014.1
20260831043048 64 116 4.0 6.0 0.00 0.00 0.00 80 1014.0
20260831042542 64 112 5.0 6.0 0.00 0.00 0.00 79 1014.1
20260831042047 64 119 5.0 6.0 0.00 0.00 0.00 78 1014.1
20260831041542 64 91 4.0 5.0 0.00 0.00 0.00 78 1014.1
20260831041046 65 104 3.0 5.0 0.00 0.00 0.00 77 1014.1
20260831040551 65 126 3.0 6.0 0.00 0.00 0.00 77 1014.2
20260831040051 65 112 4.0 6.0 0.00 0.00 0.00 77 1014.2
20260831035545 65 148 4.0 5.0 0.00 0.00 0.00 77 1014.3
20260831035042 65 128 3.0 5.0 0.00 0.00 0.00 77 1014.3
20260831034542 65 122 3.0 5.0 0.00 0.00 0.00 77 1014.3
20260831034043 65 146 3.0 5.0 0.00 0.00 0.00 77 1014.4
20260831033542 65 129 3.0 5.0 0.00 0.00 0.00 77 1014.5
20260831033042 65 114 4.0 7.0 0.00 0.00 0.00 78 1014.7
20260831032545 64 143 5.0 6.0 0.00 0.00 0.00 78 1014.7